Superior, WI

12:54 PM CDT on July 28, 2016 (GMT -0500)
Bong

Weather History for KSUW - February, 2013

Change the Weather History Date:

Sunday, February 24, 2013

  Actual Average Record
Temperature  
Mean Temperature 25 °F -  
Max Temperature 38 °F 28 °F 33 °F (2016)
Min Temperature 12 °F 10 °F -1 °F (2014)
Degree Days  
Heating Degree Days 40    
Moisture  
Dew Point 19 °F    
Average Humidity 73    
Maximum Humidity 96    
Minimum Humidity 48    
Precipitation  
Precipitation 0.00 in - - ()
Sea Level Pressure  
Sea Level Pressure 30.02 in    
Wind  
Wind Speed 5 mph (WSW)    
Max Wind Speed 12 mph    
Max Gust Speed -    
Visibility 10 miles    
Events      
Averages and records for this station are not official NWS values.
T = Trace of Precipitation, MM = Missing Value Source: NWS Daily Summary

Daily Weather History Graph

Daily Weather History Graph

Search for Another Location

Airport or City:

Trip Planner

Search our weather history database for the weather conditions in past years. The results will help you decide how hot, cold, wet, or windy it might be!

Date:

Astronomy

Feb. 24, 2013 Rise Set
Actual Time 6:56 AM CST 5:47 PM CST
Civil Twilight 6:25 AM CST 6:17 PM CST
Nautical Twilight 5:50 AM CST 6:53 PM CST
Astronomical Twilight 5:15 AM CST 7:28 PM CST
Moon 4:58 PM CST (2/24) 5:55 AM CST (2/24)
Length of Visible Light 11h 51m
Length of Day
10h 50m
Waxing Gibbous, 99% of the Moon is Illuminated
Feb 24
Waxing Gibbous
Feb 25
Full
Mar 4
Last Quarter
Mar 11
New
Mar 19
First Quarter

Hourly Weather History & Observations

Time (CST) Temp. Windchill Dew Point Humidity Pressure Visibility Wind Dir Wind Speed Gust Speed Precip Events Conditions
12:15 AM 28.6 °F 18.7 °F 22.1 °F 77% 29.93 in 10.0 mi NW 11.5 mph - N/A   Overcast
12:35 AM 28.0 °F 20.0 °F 21.7 °F 77% 29.93 in 10.0 mi NW 8.1 mph - N/A   Overcast
12:55 AM 27.5 °F 20.2 °F 21.7 °F 79% 29.93 in 10.0 mi WNW 6.9 mph - N/A   Overcast
1:15 AM 27.3 °F 20.9 °F 21.6 °F 79% 29.93 in 10.0 mi West 5.8 mph - N/A   Overcast
1:35 AM 27.0 °F 21.6 °F 21.2 °F 79% 29.94 in 10.0 mi WNW 4.6 mph - N/A   Overcast
1:55 AM 26.6 °F 20.0 °F 21.0 °F 79% 29.94 in 10.0 mi West 5.8 mph - N/A   Overcast
2:15 AM 26.4 °F 20.9 °F 21.0 °F 80% 29.94 in 10.0 mi West 4.6 mph - N/A   Overcast
2:35 AM 26.2 °F 20.7 °F 21.0 °F 81% 29.95 in 10.0 mi WSW 4.6 mph - N/A   Overcast
2:55 AM 25.7 °F 19.0 °F 20.7 °F 81% 29.95 in 10.0 mi West 5.8 mph - N/A   Overcast
3:15 AM 24.3 °F 17.3 °F 19.6 °F 82% 29.95 in 10.0 mi WSW 5.8 mph - N/A   Mostly Cloudy
3:35 AM 22.6 °F 15.3 °F 18.5 °F 84% 29.95 in 10.0 mi West 5.8 mph - N/A   Scattered Clouds
3:55 AM 21.7 °F 15.5 °F 18.3 °F 87% 29.96 in 10.0 mi West 4.6 mph - N/A   Scattered Clouds
4:15 AM 20.8 °F 16.0 °F 18.0 °F 89% 29.96 in 10.0 mi WSW 3.5 mph - N/A   Clear
4:35 AM 19.4 °F - 17.4 °F 92% 29.97 in 10.0 mi Calm Calm - N/A   Clear
4:55 AM 18.9 °F 12.1 °F 17.6 °F 95% 29.98 in 10.0 mi WSW 4.6 mph - N/A   Scattered Clouds
5:15 AM 16.9 °F 9.8 °F 15.1 °F 93% 29.98 in 10.0 mi WSW 4.6 mph - N/A   Scattered Clouds
5:35 AM 18.0 °F 9.8 °F 15.8 °F 91% 29.98 in 10.0 mi WSW 5.8 mph - N/A   Clear
5:55 AM 18.3 °F 11.5 °F 16.3 °F 92% 29.99 in 10.0 mi SW 4.6 mph - N/A   Clear
6:15 AM 15.6 °F 8.3 °F 14.5 °F 95% 29.99 in 10.0 mi WSW 4.6 mph - N/A   Clear
6:35 AM 17.1 °F 8.7 °F 15.8 °F 95% 30.00 in 10.0 mi SW 5.8 mph - N/A   Clear
7:15 AM 14.2 °F 6.7 °F 13.3 °F 96% 30.01 in 10.0 mi SW 4.6 mph - N/A   Clear
7:35 AM 12.7 °F 5.0 °F 11.7 °F 95% 30.01 in 10.0 mi SW 4.6 mph - N/A   Clear
7:55 AM 16.7 °F 8.3 °F 14.9 °F 93% 30.02 in 10.0 mi SW 5.8 mph - N/A   Clear
8:15 AM 17.6 °F 9.3 °F 15.3 °F 91% 30.02 in 10.0 mi SW 5.8 mph - N/A   Clear
8:35 AM 19.2 °F 10.2 °F 15.8 °F 87% 30.03 in 10.0 mi WSW 6.9 mph - N/A   Clear
8:55 AM 20.5 °F 14.0 °F 16.0 °F 83% 30.03 in 10.0 mi SW 4.6 mph - N/A   Clear
9:15 AM 21.9 °F 17.2 °F 16.3 °F 79% 30.03 in 10.0 mi WSW 3.5 mph - N/A   Clear
9:35 AM 23.2 °F 18.7 °F 16.7 °F 76% 30.04 in 10.0 mi SW 3.5 mph - N/A   Clear
9:55 AM 25.0 °F 20.7 °F 17.1 °F 72% 30.04 in 10.0 mi SW 3.5 mph - N/A   Clear
10:15 AM 26.6 °F 22.6 °F 17.6 °F 69% 30.04 in 10.0 mi SW 3.5 mph - N/A   Clear
10:35 AM 28.2 °F - 18.3 °F 66% 30.04 in 10.0 mi Calm Calm - N/A   Clear
10:55 AM 30.0 °F 26.5 °F 18.9 °F 63% 30.04 in 10.0 mi SSW 3.5 mph - N/A   Clear
11:15 AM 31.8 °F 28.5 °F 19.2 °F 60% 30.04 in 10.0 mi South 3.5 mph - N/A   Clear
11:35 AM 32.9 °F - 19.6 °F 58% 30.05 in 10.0 mi Calm Calm - N/A   Clear
11:55 AM 34.0 °F - 20.3 °F 57% 30.04 in 10.0 mi Calm Calm - N/A   Clear
12:15 PM 35.2 °F 31.2 °F 20.3 °F 55% 30.04 in 10.0 mi SW 4.6 mph - N/A   Clear
12:35 PM 35.8 °F 31.9 °F 20.5 °F 54% 30.04 in 10.0 mi SSW 4.6 mph - N/A   Clear
12:55 PM 35.6 °F - 19.9 °F 53% 30.03 in 10.0 mi Calm Calm - N/A   Clear
1:15 PM 36.0 °F - 19.9 °F 52% 30.03 in 10.0 mi Calm Calm - N/A   Clear
1:35 PM 37.0 °F - 20.7 °F 52% 30.03 in 10.0 mi Calm Calm - N/A   Clear
1:55 PM 37.2 °F - 20.1 °F 50% 30.03 in 10.0 mi Calm Calm - N/A   Clear
2:15 PM 38.7 °F - 20.7 °F 48% 30.02 in 10.0 mi Calm Calm - N/A   Clear
2:35 PM 37.8 °F 33.3 °F 20.7 °F 50% 30.02 in 10.0 mi SW 5.8 mph - N/A   Clear
2:55 PM 37.2 °F 32.6 °F 21.4 °F 53% 30.03 in 10.0 mi SW 5.8 mph - N/A   Clear
3:15 PM 37.2 °F 31.9 °F 21.2 °F 52% 30.03 in 10.0 mi SW 6.9 mph - N/A   Clear
3:35 PM 37.4 °F 32.8 °F 22.1 °F 54% 30.03 in 10.0 mi WSW 5.8 mph - N/A   Clear
3:55 PM 37.8 °F 34.2 °F 21.9 °F 53% 30.03 in 10.0 mi WSW 4.6 mph - N/A   Clear
4:15 PM 37.2 °F 31.9 °F 21.9 °F 54% 30.03 in 10.0 mi WSW 6.9 mph - N/A   Clear
4:35 PM 36.9 °F 34.3 °F 21.9 °F 55% 30.03 in 10.0 mi WSW 3.5 mph - N/A   Clear
4:55 PM 36.5 °F 31.8 °F 21.6 °F 55% 30.03 in 10.0 mi West 5.8 mph - N/A   Clear
5:15 PM 35.1 °F 32.2 °F 21.4 °F 57% 30.03 in 10.0 mi WSW 3.5 mph - N/A   Clear
5:35 PM 33.8 °F 28.6 °F 21.7 °F 61% 30.03 in 10.0 mi WSW 5.8 mph - N/A   Clear
5:55 PM 32.7 °F 26.4 °F 21.9 °F 64% 30.04 in 10.0 mi SW 6.9 mph - N/A   Clear
6:15 PM 32.0 °F 26.4 °F 21.9 °F 66% 30.04 in 10.0 mi SW 5.8 mph - N/A   Clear
6:35 PM 31.6 °F 27.0 °F 21.7 °F 67% 30.04 in 10.0 mi SW 4.6 mph - N/A   Clear
6:55 PM 30.4 °F 26.9 °F 21.6 °F 70% 30.05 in 10.0 mi WSW 3.5 mph - N/A   Clear
7:15 PM 30.4 °F 26.9 °F 21.6 °F 70% 30.06 in 10.0 mi WSW 3.5 mph - N/A   Clear
7:35 PM 29.8 °F 26.3 °F 21.6 °F 71% 30.06 in 10.0 mi WSW 3.5 mph - N/A   Clear
7:55 PM 29.3 °F 25.6 °F 21.4 °F 72% 30.06 in 10.0 mi WSW 3.5 mph - N/A   Clear
8:15 PM 28.9 °F 25.2 °F 21.2 °F 73% 30.07 in 10.0 mi SW 3.5 mph - N/A   Clear
8:35 PM 28.4 °F 23.3 °F 21.0 °F 74% 30.07 in 10.0 mi SW 4.6 mph - N/A   Clear
8:55 PM 28.2 °F 24.4 °F 20.8 °F 74% 30.07 in 10.0 mi WSW 3.5 mph - N/A   Clear
9:15 PM 28.2 °F 23.1 °F 20.8 °F 74% 30.06 in 10.0 mi SW 4.6 mph - N/A   Clear
9:35 PM 26.2 °F 20.7 °F 19.6 °F 76% 30.06 in 10.0 mi SW 4.6 mph - N/A   Clear
9:55 PM 27.1 °F 21.8 °F 20.3 °F 75% 30.07 in 10.0 mi SW 4.6 mph - N/A   Clear
10:15 PM 24.4 °F 17.5 °F 19.0 °F 80% 30.07 in 10.0 mi SW 5.8 mph - N/A   Clear
10:35 PM 24.8 °F 17.9 °F 19.2 °F 79% 30.07 in 10.0 mi SW 5.8 mph - N/A   Clear
10:55 PM 23.0 °F 14.7 °F 18.0 °F 81% 30.07 in 10.0 mi SW 6.9 mph - N/A   Clear
11:15 PM 24.3 °F 17.3 °F 18.7 °F 79% 30.07 in 10.0 mi SW 5.8 mph - N/A   Clear
11:35 PM 22.5 °F 15.1 °F 18.0 °F 83% 30.07 in 10.0 mi SW 5.8 mph - N/A   Clear
11:55 PM 23.7 °F 15.6 °F 18.7 °F 81% 30.07 in 10.0 mi SW 6.9 mph - N/A   Clear